Location: Newark
(51.3318°N, 0.0053°E)
Time: 07:18:01
(UTC+00:00)

ONEWEB-0421 - Pass Details

Date: 30 May 2024
Orbit: 1188 x 1191 km, 87.9° (Epoch: 20 June)

Event Time Altitude Azimuth Distance (km) Brightness Sun altitude
Rises 02:52:07 0° 359° (N) 4,099 ? -7.4°
Reaches altitude 10° 02:54:50 10° 3° (N) 3,131 ? -7.2°
Maximum altitude 03:02:01 60° 83° (E) 1,345 ? -6.4°
Drops below altitude 10° 03:09:09 10° 163° (SSE) 3,111 ? -5.7°
Sets 03:11:51 0° 167° (SSE) 4,070 ? -5.4°
